| time (UTC) | temp F | wind direction | speed MPH | gust MPH | rain 1hr in | rain 24hr in | rain mn in | humidity % | barometer mb |
| 20260507185016 | 97 | 281 | 2.0 | 4.0 | 0.00 | 0.00 | 0.00 | 15 | 1018.3 |
| 20260507184025 | 94 | 262 | 3.0 | 4.0 | 0.00 | 0.00 | 0.00 | 15 | 1018.8 |
| 20260507183033 | 97 | 131 | 3.0 | 5.0 | 0.00 | 0.00 | 0.00 | 15 | 1018.0 |
| 20260507182022 | 96 | 155 | 2.0 | 3.0 | 0.00 | 0.00 | 0.00 | 16 | 1019.0 |
| 20260507181030 | 95 | 138 | 4.0 | 7.0 | 0.00 | 0.00 | 0.00 | 16 | 1019.1 |
| 20260507180020 | 96 | 128 | 3.0 | 5.0 | 0.00 | 0.00 | 0.00 | 17 | 1019.0 |
| 20260507175028 | 92 | 295 | 3.0 | 4.0 | 0.00 | 0.00 | 0.00 | 17 | 1019.3 |
| 20260507174016 | 94 | 157 | 3.0 | 4.0 | 0.00 | 0.00 | 0.00 | 17 | 1019.5 |
| 20260507173024 | 93 | 114 | 5.0 | 6.0 | 0.00 | 0.00 | 0.00 | 18 | 1019.3 |
| 20260507172032 | 92 | 147 | 4.0 | 6.0 | 0.00 | 0.00 | 0.00 | 18 | 1019.6 |
| 20260507171021 | 91 | 148 | 4.0 | 6.0 | 0.00 | 0.00 | 0.00 | 19 | 1019.7 |
| 20260507170029 | 90 | 130 | 3.0 | 5.0 | 0.00 | 0.00 | 0.00 | 20 | 1019.9 |
| 20260507165039 | 91 | 136 | 4.0 | 6.0 | 0.00 | 0.00 | 0.00 | 21 | 1019.2 |
| 20260507164027 | 92 | 105 | 3.0 | 5.0 | 0.00 | 0.00 | 0.00 | 20 | 1019.7 |
| 20260507163036 | 90 | 110 | 2.0 | 4.0 | 0.00 | 0.00 | 0.00 | 20 | 1020.0 |
| 20260507162024 | 90 | 110 | 4.0 | 6.0 | 0.00 | 0.00 | 0.00 | 21 | 1019.9 |
| 20260507161032 | 91 | 108 | 4.0 | 5.0 | 0.00 | 0.00 | 0.00 | 21 | 1020.3 |
| 20260507160022 | 91 | 117 | 4.0 | 6.0 | 0.00 | 0.00 | 0.00 | 21 | 1019.7 |
| 20260507155029 | 89 | 108 | 2.0 | 3.0 | 0.00 | 0.00 | 0.00 | 22 | 1019.5 |
| 20260507154019 | 86 | 97 | 2.0 | 3.0 | 0.00 | 0.00 | 0.00 | 22 | 1020.3 |
| 20260507153107 | 83 | 53 | 2.0 | 4.0 | 0.00 | 0.00 | 0.00 | 25 | 1019.6 |
| 20260507152036 | 81 | 266 | 2.0 | 4.0 | 0.00 | 0.00 | 0.00 | 26 | 1020.3 |
| 20260507151024 | 81 | 300 | 2.0 | 4.0 | 0.00 | 0.00 | 0.00 | 27 | 1020.3 |
| 20260507150032 | 79 | 17 | 2.0 | 3.0 | 0.00 | 0.00 | 0.00 | 27 | 1020.2 |
| 20260507145022 | 79 | 322 | 2.0 | 4.0 | 0.00 | 0.00 | 0.00 | 27 | 1020.2 |
| 20260507144030 | 77 | 2 | 1.0 | 2.0 | 0.00 | 0.00 | 0.00 | 29 | 1020.6 |
| 20260507143100 | 76 | 314 | 2.0 | 3.0 | 0.00 | 0.00 | 0.00 | 30 | 1020.0 |
| 20260507142028 | 74 | 348 | 2.0 | 2.0 | 0.00 | 0.00 | 0.00 | 31 | 1020.2 |
| 20260507141017 | 74 | 34 | 1.0 | 1.0 | 0.00 | 0.00 | 0.00 | 31 | 1020.1 |
| 20260507140025 | 74 | 347 | 1.0 | 2.0 | 0.00 | 0.00 | 0.00 | 33 | 1020.1 |
| 20260507135053 | 71 | 40 | 1.0 | 1.0 | 0.00 | 0.00 | 0.00 | 35 | 1020.1 |
| 20260507134022 | 70 | 73 | 1.0 | 1.0 | 0.00 | 0.00 | 0.00 | 35 | 1019.9 |
| 20260507133030 | 68 | 354 | 0.0 | 2.0 | 0.00 | 0.00 | 0.00 | 37 | 1020.2 |
| 20260507132020 | 66 | 8 | 1.0 | 1.0 | 0.00 | 0.00 | 0.00 | 37 | 1019.6 |
| 20260507131028 | 64 | 193 | 1.0 | 1.0 | 0.00 | 0.00 | 0.00 | 37 | 1019.4 |
| 20260507130017 | 63 | 42 | 1.0 | 1.0 | 0.00 | 0.00 | 0.00 | 39 | 1019.4 |
| 20260507125025 | 62 | 353 | 1.0 | 2.0 | 0.00 | 0.00 | 0.00 | 39 | 1019.2 |
| 20260507124115 | 62 | 317 | 2.0 | 3.0 | 0.00 | 0.00 | 0.00 | 39 | 1019.5 |
| 20260507123023 | 61 | 327 | 0.0 | 2.0 | 0.00 | 0.00 | 0.00 | 39 | 1019.4 |
| 20260507122031 | 62 | 3 | 1.0 | 2.0 | 0.00 | 0.00 | 0.00 | 37 | 1019.7 |
| 20260507121020 | 63 | 339 | 2.0 | 3.0 | 0.00 | 0.00 | 0.00 | 37 | 1019.2 |
| 20260507120029 | 63 | 33 | 1.0 | 2.0 | 0.00 | 0.00 | 0.00 | 37 | 1019.3 |
| 20260507115018 | 63 | 354 | 2.0 | 2.0 | 0.00 | 0.00 | 0.00 | 37 | 1019.4 |
| 20260507114025 | 63 | 2 | 2.0 | 3.0 | 0.00 | 0.00 | 0.00 | 37 | 1019.5 |
| 20260507113015 | 64 | 350 | 3.0 | 4.0 | 0.00 | 0.00 | 0.00 | 37 | 1019.6 |
| 20260507112023 | 64 | 333 | 4.0 | 4.0 | 0.00 | 0.00 | 0.00 | 37 | 1019.6 |
| 20260507111031 | 63 | 340 | 3.0 | 4.0 | 0.00 | 0.00 | 0.00 | 37 | 1019.8 |
| 20260507110040 | 63 | 331 | 3.0 | 4.0 | 0.00 | 0.00 | 0.00 | 37 | 1019.7 |
| 20260507105028 | 63 | 329 | 1.0 | 2.0 | 0.00 | 0.00 | 0.00 | 37 | 1020.2 |
| 20260507104018 | 64 | 325 | 1.0 | 2.0 | 0.00 | 0.00 | 0.00 | 37 | 1019.8 |
| 20260507103025 | 63 | 270 | 0.0 | 1.0 | 0.00 | 0.00 | 0.00 | 37 | 1020.2 |
| 20260507102115 | 63 | 57 | 1.0 | 2.0 | 0.00 | 0.00 | 0.00 | 37 | 1020.0 |
| 20260507101023 | 65 | 323 | 1.0 | 1.0 | 0.00 | 0.00 | 0.00 | 37 | 1019.9 |
| 20260507100031 | 64 | 360 | 1.0 | 2.0 | 0.00 | 0.00 | 0.00 | 39 | 1020.0 |
| 20260507095021 | 64 | 57 | 1.0 | 1.0 | 0.00 | 0.00 | 0.00 | 39 | 1020.1 |
| 20260507094028 | 64 | 109 | 1.0 | 2.0 | 0.00 | 0.00 | 0.00 | 39 | 1019.7 |
| 20260507093018 | 65 | 3 | 1.0 | 1.0 | 0.00 | 0.00 | 0.00 | 37 | 1019.9 |
| 20260507092046 | 66 | 341 | 1.0 | 1.0 | 0.00 | 0.00 | 0.00 | 37 | 1019.9 |
| 20260507091015 | 67 | 329 | 1.0 | 1.0 | 0.00 | 0.00 | 0.00 | 35 | 1019.7 |
| 20260507090023 | 67 | 293 | 0.0 | 1.0 | 0.00 | 0.00 | 0.00 | 35 | 1019.7 |
| 20260507085052 | 68 | 320 | 1.0 | 2.0 | 0.00 | 0.00 | 0.00 | 34 | 1019.9 |
| 20260507084101 | 69 | 312 | 2.0 | 3.0 | 0.00 | 0.00 | 0.00 | 32 | 1020.1 |
| 20260507083029 | 69 | 300 | 2.0 | 3.0 | 0.00 | 0.00 | 0.00 | 32 | 1020.3 |
| 20260507082018 | 69 | 331 | 2.0 | 3.0 | 0.00 | 0.00 | 0.00 | 32 | 1020.1 |
| 20260507081026 | 69 | 318 | 1.0 | 1.0 | 0.00 | 0.00 | 0.00 | 33 | 1020.1 |
| 20260507080015 | 71 | 0 | 0.0 | 1.0 | 0.00 | 0.00 | 0.00 | 31 | 1020.0 |
| 20260507075023 | 71 | 219 | 0.0 | 1.0 | 0.00 | 0.00 | 0.00 | 30 | 1019.9 |
| 20260507074031 | 72 | 263 | 1.0 | 2.0 | 0.00 | 0.00 | 0.00 | 30 | 1020.5 |
| 20260507073101 | 72 | 228 | 3.0 | 3.0 | 0.00 | 0.00 | 0.00 | 30 | 1019.9 |
| 20260507072029 | 72 | 213 | 3.0 | 4.0 | 0.00 | 0.00 | 0.00 | 30 | 1020.0 |
| 20260507071019 | 73 | 221 | 4.0 | 6.0 | 0.00 | 0.00 | 0.00 | 30 | 1019.9 |
| 20260507070026 | 73 | 208 | 4.0 | 5.0 | 0.00 | 0.00 | 0.00 | 30 | 1019.8 |
| 20260507065015 | 73 | 212 | 3.0 | 4.0 | 0.00 | 0.00 | 0.00 | 29 | 1020.0 |
| 20260507064023 | 73 | 224 | 3.0 | 3.0 | 0.00 | 0.00 | 0.00 | 29 | 1020.1 |
| 20260507063031 | 73 | 215 | 3.0 | 5.0 | 0.00 | 0.00 | 0.00 | 29 | 1019.8 |
| 20260507062021 | 73 | 230 | 4.0 | 5.0 | 0.00 | 0.00 | 0.00 | 29 | 1020.1 |
| 20260507061029 | 73 | 202 | 3.0 | 4.0 | 0.00 | 0.00 | 0.00 | 29 | 1019.8 |
| 20260507060018 | 73 | 190 | 2.0 | 3.0 | 0.00 | 0.00 | 0.00 | 29 | 1020.1 |
| 20260507055026 | 74 | 227 | 2.0 | 3.0 | 0.00 | 0.00 | 0.00 | 29 | 1020.1 |
| 20260507054015 | 74 | 265 | 3.0 | 5.0 | 0.00 | 0.00 | 0.00 | 29 | 1020.0 |
| 20260507053043 | 73 | 268 | 3.0 | 5.0 | 0.00 | 0.00 | 0.00 | 30 | 1020.2 |
| 20260507052052 | 73 | 245 | 1.0 | 2.0 | 0.00 | 0.00 | 0.00 | 30 | 1020.1 |
| 20260507051021 | 74 | 232 | 1.0 | 2.0 | 0.00 | 0.00 | 0.00 | 30 | 1020.1 |
| 20260507050029 | 74 | 238 | 2.0 | 3.0 | 0.00 | 0.00 | 0.00 | 30 | 1019.9 |
| 20260507045018 | 75 | 231 | 4.0 | 5.0 | 0.00 | 0.00 | 0.00 | 30 | 1020.1 |
| 20260507044026 | 75 | 227 | 3.0 | 5.0 | 0.00 | 0.00 | 0.00 | 29 | 1019.6 |
| 20260507043035 | 76 | 219 | 3.0 | 4.0 | 0.00 | 0.00 | 0.00 | 27 | 1020.1 |
| 20260507042024 | 76 | 235 | 4.0 | 5.0 | 0.00 | 0.00 | 0.00 | 27 | 1019.8 |
| 20260507041051 | 76 | 220 | 3.0 | 4.0 | 0.00 | 0.00 | 0.00 | 27 | 1019.2 |
| 20260507040021 | 77 | 220 | 3.0 | 4.0 | 0.00 | 0.00 | 0.00 | 27 | 1019.6 |
| 20260507035029 | 77 | 189 | 2.0 | 3.0 | 0.00 | 0.00 | 0.00 | 27 | 1019.0 |
| 20260507034018 | 78 | 199 | 2.0 | 3.0 | 0.00 | 0.00 | 0.00 | 27 | 1018.9 |
| 20260507033026 | 78 | 231 | 2.0 | 4.0 | 0.00 | 0.00 | 0.00 | 27 | 1018.7 |
| 20260507032015 | 79 | 250 | 4.0 | 5.0 | 0.00 | 0.00 | 0.00 | 27 | 1018.9 |
| 20260507031023 | 79 | 229 | 3.0 | 4.0 | 0.00 | 0.00 | 0.00 | 27 | 1018.6 |
| 20260507030051 | 79 | 237 | 3.0 | 4.0 | 0.00 | 0.00 | 0.00 | 27 | 1018.6 |
| 20260507025021 | 79 | 242 | 4.0 | 5.0 | 0.00 | 0.00 | 0.00 | 27 | 1018.3 |
| 20260507024029 | 80 | 200 | 3.0 | 4.0 | 0.00 | 0.00 | 0.00 | 25 | 1017.9 |
| 20260507023019 | 80 | 205 | 4.0 | 5.0 | 0.00 | 0.00 | 0.00 | 25 | 1018.3 |
| 20260507022026 | 81 | 228 | 4.0 | 6.0 | 0.00 | 0.00 | 0.00 | 24 | 1018.2 |
| 20260507021016 | 82 | 212 | 5.0 | 6.0 | 0.00 | 0.00 | 0.00 | 24 | 1018.0 |
| 20260507020044 | 82 | 214 | 6.0 | 8.0 | 0.00 | 0.00 | 0.00 | 24 | 1018.3 |
| 20260507015031 | 83 | 199 | 5.0 | 7.0 | 0.00 | 0.00 | 0.00 | 22 | 1017.8 |
| 20260507014021 | 84 | 198 | 5.0 | 8.0 | 0.00 | 0.00 | 0.00 | 22 | 1018.0 |
| 20260507013049 | 84 | 216 | 6.0 | 8.0 | 0.00 | 0.00 | 0.00 | 22 | 1017.9 |
| 20260507012018 | 85 | 226 | 5.0 | 7.0 | 0.00 | 0.00 | 0.00 | 22 | 1018.0 |
| 20260507011026 | 85 | 184 | 5.0 | 8.0 | 0.00 | 0.00 | 0.00 | 22 | 1017.7 |
| 20260507010015 | 86 | 193 | 5.0 | 8.0 | 0.00 | 0.00 | 0.00 | 22 | 1017.9 |
| 20260507005023 | 86 | 235 | 6.0 | 7.0 | 0.00 | 0.00 | 0.00 | 22 | 1018.2 |
| 20260507004030 | 87 | 174 | 3.0 | 5.0 | 0.00 | 0.00 | 0.00 | 22 | 1017.7 |
| 20260507003040 | 87 | 209 | 6.0 | 7.0 | 0.00 | 0.00 | 0.00 | 22 | 1017.8 |
| 20260507002027 | 87 | 167 | 5.0 | 8.0 | 0.00 | 0.00 | 0.00 | 22 | 1018.1 |
| 20260507001017 | 88 | 167 | 4.0 | 5.0 | 0.00 | 0.00 | 0.00 | 22 | 1018.0 |
| 20260507000025 | 87 | 174 | 4.0 | 6.0 | 0.00 | 0.00 | 0.00 | 22 | 1018.1 |
| 20260506235014 | 87 | 207 | 5.0 | 7.0 | 0.00 | 0.00 | 0.00 | 22 | 1018.4 |
| 20260506234022 | 88 | 248 | 6.0 | 8.0 | 0.00 | 0.00 | 0.00 | 22 | 1018.5 |
| 20260506233030 | 87 | 245 | 6.0 | 9.0 | 0.00 | 0.00 | 0.00 | 22 | 1018.0 |
| 20260506232020 | 88 | 224 | 4.0 | 6.0 | 0.00 | 0.00 | 0.00 | 22 | 1018.8 |
| 20260506231027 | 87 | 202 | 4.0 | 9.0 | 0.00 | 0.00 | 0.00 | 22 | 1018.5 |
| 20260506230037 | 88 | 243 | 4.0 | 6.0 | 0.00 | 0.00 | 0.00 | 22 | 1018.9 |
| 20260506225024 | 89 | 155 | 5.0 | 8.0 | 0.00 | 0.00 | 0.00 | 22 | 1018.9 |
| 20260506224032 | 87 | 159 | 4.0 | 6.0 | 0.00 | 0.00 | 0.00 | 24 | 1018.9 |
| 20260506223021 | 88 | 259 | 4.0 | 7.0 | 0.00 | 0.00 | 0.00 | 22 | 1018.7 |
| 20260506222029 | 88 | 197 | 3.0 | 6.0 | 0.00 | 0.00 | 0.00 | 22 | 1019.2 |
| 20260506221038 | 89 | 231 | 4.0 | 9.0 | 0.00 | 0.00 | 0.00 | 22 | 1019.3 |
| 20260506220026 | 86 | 225 | 5.0 | 8.0 | 0.00 | 0.00 | 0.00 | 22 | 1019.1 |
| 20260506215016 | 87 | 237 | 5.0 | 6.0 | 0.00 | 0.00 | 0.00 | 22 | 1019.8 |
| 20260506214044 | 87 | 155 | 5.0 | 7.0 | 0.00 | 0.00 | 0.00 | 23 | 1019.5 |
| 20260506213032 | 86 | 250 | 6.0 | 9.0 | 0.00 | 0.00 | 0.00 | 22 | 1019.9 |
| 20260506212021 | 88 | 260 | 3.0 | 5.0 | 0.00 | 0.00 | 0.00 | 22 | 1020.1 |
| 20260506211029 | 88 | 143 | 3.0 | 7.0 | 0.00 | 0.00 | 0.00 | 23 | 1020.2 |
| 20260506210018 | 85 | 223 | 5.0 | 7.0 | 0.00 | 0.00 | 0.00 | 24 | 1020.3 |
| 20260506205026 | 88 | 242 | 3.0 | 5.0 | 0.00 | 0.00 | 0.00 | 22 | 1020.8 |
| 20260506204015 | 87 | 264 | 4.0 | 6.0 | 0.00 | 0.00 | 0.00 | 22 | 1020.6 |
| 20260506203023 | 87 | 297 | 4.0 | 8.0 | 0.00 | 0.00 | 0.00 | 22 | 1020.7 |
| 20260506202031 | 86 | 241 | 6.0 | 10.0 | 0.00 | 0.00 | 0.00 | 23 | 1020.9 |
| 20260506201020 | 88 | 243 | 3.0 | 5.0 | 0.00 | 0.00 | 0.00 | 23 | 1021.1 |
| 20260506200028 | 84 | 202 | 5.0 | 8.0 | 0.00 | 0.00 | 0.00 | 24 | 1021.2 |
| 20260506195018 | 85 | 244 | 4.0 | 7.0 | 0.00 | 0.00 | 0.00 | 25 | 1020.9 |
| 20260506194025 | 84 | 303 | 3.0 | 5.0 | 0.00 | 0.00 | 0.00 | 25 | 1021.2 |
| 20260506193015 | 84 | 303 | 5.0 | 8.0 | 0.00 | 0.00 | 0.00 | 25 | 1021.3 |
| 20260506192023 | 83 | 251 | 4.0 | 7.0 | 0.00 | 0.00 | 0.00 | 25 | 1021.4 |
| 20260506191051 | 83 | 206 | 6.0 | 8.0 | 0.00 | 0.00 | 0.00 | 27 | 1021.5 |
| 20260506190020 | 83 | 202 | 4.0 | 6.0 | 0.00 | 0.00 | 0.00 | 27 | 1021.6 |